Location: Charlottesville
(38.0290°N, 78.4770°W)
Time: 08:53:26
(UTC-05:00)

Envisat - Pass Details

Date: 07 October 2017
Orbit: 764 x 766 km, 98.2° (Epoch: 17 December)

Event Time Altitude Azimuth Distance (km) Brightness Sun altitude
Exits shadow 19:38:13 13° 73° (ENE) 2,118 4.7 -10.8°
Maximum altitude 19:39:03 13° 62° (ENE) 2,089 4.7 -11.0°
Drops below altitude 10° 19:41:21 10° 35° (NE) 2,309 5.2 -11.4°
Sets 19:44:54 0° 9° (N) 3,241 6.2 -12.1°
